This is the latest recevied weather packets stored in our database for station/object KB1ZFK. If no packets are shown the sender has not sent any weather packets the latest 10 day(s).
| Time | Temp. | Humidity | Pressure | Rain* | Wind** | Luminosity | Snow |
|---|---|---|---|---|---|---|---|
| 1777687919 | 5.56° C | 76% | 1011.1 hPa | 0 mm | - | 0 W/m² | - |
| 1777687616 | 5.56° C | 79% | 1011.2 hPa | 0 mm | - | 0 W/m² | - |
| 1777687313 | 6.11° C | 79% | 1011.1 hPa | 0 mm | - | 0 W/m² | - |
| 1777687011 | 6.11° C | 73% | 1011 hPa | 0 mm | - | 0 W/m² | - |
| 1777686707 | 6.11° C | 74% | 1010.9 hPa | 0 mm | - | 0 W/m² | - |
| 1777686405 | 6.11° C | 76% | 1011.2 hPa | 0 mm | - | 0 W/m² | - |
| 1777686101 | 6.11° C | 75% | 1011.1 hPa | 0 mm | - | 0 W/m² | - |
| 1777685797 | 6.11° C | 75% | 1011 hPa | 0 mm | - | 0 W/m² | - |
| 1777685493 | 6.11° C | 73% | 1011 hPa | 0 mm | - | 0 W/m² | - |
| 1777685191 | 6.11° C | 72% | 1011 hPa | 0 mm | - | 0 W/m² | - |
| 1777684889 | 6.67° C | 72% | 1011 hPa | 0 mm | - | 0 W/m² | - |
| 1777684585 | 6.67° C | 70% | 1010.9 hPa | 0 mm | - | 0 W/m² | - |
| 1777684281 | 6.67° C | 71% | 1010.7 hPa | 0 mm | - | 0 W/m² | - |
| 1777683978 | 6.67° C | 71% | 1011 hPa | 0 mm | - | 0 W/m² | - |
| 1777683675 | 7.22° C | 70% | 1010.8 hPa | 0 mm | - | 0 W/m² | - |
| 1777683373 | 7.22° C | 67% | 1010.7 hPa | 0 mm | - | 0 W/m² | - |
| 1777683070 | 7.22° C | 68% | 1010.5 hPa | 0 mm | - | 0 W/m² | - |
| 1777682765 | 7.22° C | 66% | 1010.8 hPa | 0 mm | - | 0 W/m² | - |
| 1777682463 | 7.78° C | 64% | 1010.7 hPa | 0 mm | - | 0 W/m² | - |
| 1777682161 | 7.78° C | 65% | 1010.6 hPa | 0 mm | - | 0 W/m² | - |
| 1777681857 | 8.33° C | 65% | 1010.4 hPa | 0 mm | - | 0 W/m² | - |
| 1777681553 | 8.33° C | 59% | 1010.5 hPa | 0 mm | - | 0 W/m² | - |
| 1777681251 | 8.33° C | 59% | 1010.4 hPa | 0 mm | - | 0 W/m² | - |
| 1777680949 | 8.89° C | 59% | 1010.2 hPa | 0 mm | - | 0 W/m² | - |
| 1777680645 | 8.89° C | 61% | 1010.3 hPa | 0 mm | - | 0 W/m² | - |
* Rain latest hour (hover to see other rain measurements)
** Current wind speed in m/s (hover to see current wind gust speed)